EW9904 Weather Reports


Display with metric or nautical units.
time (UTC)temp
F
wind
direction
speed
MPH
gust
MPH
rain 1hr
in
rain 24hr
in
rain mn
in
humidity
%
barometer
mb
20260903174502 85 340 3.0 10.0 0.00 0.07 0.06 81 1014.8
20260903174002 85 329 3.0 10.0 0.00 0.07 0.06 79 1015.0
20260903173503 86 315 2.0 7.0 0.00 0.07 0.06 79 1015.2
20260903173003 86 290 2.0 6.0 0.00 0.07 0.06 81 1015.0
20260903172003 85 292 3.0 7.0 0.00 0.07 0.06 79 1015.2
20260903171501 86 263 3.0 7.0 0.00 0.07 0.06 80 1015.4
20260903171002 85 331 3.0 10.0 0.00 0.07 0.06 79 1015.5
20260903170501 85 198 2.0 10.0 0.00 0.07 0.06 80 1015.2
20260903170005 85 311 2.0 9.0 0.00 0.07 0.06 81 1015.2
20260903165502 84 264 3.0 11.0 0.00 0.07 0.06 81 1015.4
20260903165003 84 237 3.0 11.0 0.00 0.07 0.06 80 1015.5
20260903164003 84 256 3.0 10.0 0.00 0.07 0.06 81 1015.7
20260903163502 84 335 3.0 10.0 0.00 0.07 0.06 80 1015.8
20260903163002 84 248 3.0 9.0 0.00 0.07 0.06 79 1015.8
20260903162503 84 248 3.0 9.0 0.00 0.07 0.06 79 1015.8
20260903161501 85 224 3.0 10.0 0.00 0.07 0.06 79 1015.6
20260903161003 84 85 3.0 7.0 0.00 0.07 0.06 79 1015.6
20260903160502 85 265 3.0 9.0 0.00 0.07 0.06 79 1015.5
20260903160002 84 286 2.0 9.0 0.00 0.07 0.06 81 1015.5
20260903155501 84 238 2.0 5.0 0.00 0.07 0.06 81 1015.5
20260903155002 85 237 3.0 10.0 0.00 0.07 0.06 78 1015.6
20260903154501 85 213 3.0 10.0 0.00 0.07 0.06 77 1015.6
20260903154003 85 257 3.0 7.0 0.00 0.07 0.06 80 1015.6
20260903153502 85 232 3.0 7.0 0.00 0.07 0.06 82 1015.5
20260903153002 85 246 3.0 10.0 0.00 0.07 0.06 82 1015.6
20260903152501 84 232 4.0 11.0 0.00 0.07 0.06 82 1015.6
20260903152004 83 209 4.0 10.0 0.00 0.07 0.06 81 1015.6
20260903151501 84 142 3.0 7.0 0.00 0.07 0.06 82 1015.8
20260903151003 83 234 3.0 8.0 0.00 0.07 0.06 83 1015.7
20260903150005 83 275 3.0 8.0 0.00 0.07 0.06 84 1015.7
20260903145005 82 254 4.0 10.0 0.00 0.07 0.06 86 1015.5
20260903144502 81 198 3.0 10.0 0.00 0.07 0.06 87 1015.6
20260903144004 81 225 3.0 9.0 0.00 0.07 0.06 87 1015.8
20260903143502 81 231 3.0 8.0 0.00 0.07 0.06 88 1015.7
20260903142503 80 219 3.0 7.0 0.00 0.07 0.06 89 1015.8
20260903142004 80 193 2.0 7.0 0.00 0.07 0.06 90 1016.0
20260903140002 78 225 2.0 7.0 0.00 0.07 0.06 91 1015.8
20260903135501 78 261 2.0 7.0 0.00 0.07 0.06 91 1015.9
20260903134504 77 247 3.0 10.0 0.00 0.07 0.06 91 1016.0
20260903134002 77 202 3.0 7.0 0.00 0.07 0.06 92 1016.2
20260903133502 77 194 2.0 6.0 0.00 0.07 0.06 92 1016.2
20260903133006 78 184 1.0 5.0 0.00 0.07 0.06 93 1016.2
20260903132502 78 239 2.0 5.0 0.00 0.07 0.06 93 1016.4
20260903132002 77 235 2.0 5.0 0.00 0.07 0.06 94 1016.6
20260903131002 77 240 2.0 7.0 0.00 0.07 0.06 94 1016.9
20260903130502 77 259 2.0 7.0 0.00 0.07 0.06 94 1016.8
20260903130005 76 204 2.0 5.0 0.00 0.07 0.06 94 1016.8
20260903125501 76 153 1.0 5.0 0.00 0.07 0.06 94 1017.2
20260903125004 76 138 2.0 7.0 0.00 0.07 0.06 95 1017.4
20260903124501 76 163 2.0 7.0 0.00 0.07 0.06 95 1017.4
20260903124005 76 61 1.0 3.0 0.00 0.07 0.06 95 1017.6
20260903123502 76 61 1.0 2.0 0.00 0.07 0.06 95 1017.9
20260903123003 76 61 1.0 2.0 0.00 0.07 0.06 95 1017.9
20260903122501 76 61 1.0 2.0 0.00 0.07 0.06 95 1017.9
20260903122003 75 61 1.0 4.0 0.00 0.07 0.06 95 1018.0
20260903121501 75 61 1.0 4.0 0.00 0.07 0.06 95 1018.1
20260903121002 75 60 1.0 3.0 0.00 0.07 0.06 95 1018.0
20260903120502 75 60 1.0 3.0 0.00 0.07 0.06 95 1017.9
20260903120008 75 60 1.0 3.0 0.00 0.07 0.06 95 1017.9
20260903115501 75 60 1.0 2.0 0.00 0.07 0.06 95 1017.9
20260903115003 75 60 1.0 3.0 0.01 0.07 0.06 95 1018.1
20260903114502 75 60 1.0 3.0 0.02 0.07 0.06 95 1017.9
20260903114003 75 59 1.0 2.0 0.02 0.07 0.06 95 1017.9
20260903113500 75 59 1.0 2.0 0.02 0.07 0.06 95 1017.9
20260903113003 75 59 1.0 3.0 0.02 0.07 0.06 95 1017.9
20260903112501 75 59 1.0 3.0 0.02 0.07 0.06 95 1017.8
20260903111502 75 59 1.0 3.0 0.02 0.07 0.06 95 1017.5
20260903111003 75 59 1.0 3.0 0.02 0.07 0.06 95 1017.4
20260903110501 75 59 1.0 3.0 0.02 0.07 0.06 95 1017.4
20260903110004 75 59 1.0 2.0 0.02 0.07 0.06 95 1017.4
20260903105502 75 59 1.0 2.0 0.02 0.07 0.06 95 1017.2
20260903105001 75 59 1.0 1.0 0.01 0.06 0.05 95 1017.1
20260903104501 75 59 1.0 2.0 0.00 0.05 0.04 95 1017.0
20260903104004 74 59 0.0 2.0 0.00 0.05 0.04 95 1017.3
20260903103501 75 59 1.0 2.0 0.00 0.05 0.04 95 1017.1
20260903103001 75 59 1.0 2.0 0.00 0.05 0.04 95 1017.1
20260903102501 75 59 1.0 2.0 0.00 0.05 0.04 95 1017.3
20260903102002 74 59 1.0 2.0 0.00 0.05 0.04 95 1017.3
20260903100500 74 59 0.0 1.0 0.00 0.05 0.04 95 1016.9
20260903100005 74 59 0.0 1.0 0.00 0.05 0.04 95 1016.8
20260903095459 74 59 0.0 1.0 0.00 0.05 0.04 95 1016.7
20260903095002 74 59 0.0 0.0 0.00 0.05 0.04 95 1016.8
20260903094500 74 59 0.0 0.0 0.00 0.05 0.04 94 1016.8
20260903094000 74 59 0.0 1.0 0.00 0.05 0.04 94 1016.8
20260903093501 74 59 0.0 1.0 0.01 0.05 0.04 94 1016.9
20260903093002 74 59 0.0 1.0 0.01 0.05 0.04 94 1016.8
20260903092500 74 59 0.0 1.0 0.01 0.05 0.04 94 1016.7
20260903092000 75 59 0.0 0.0 0.01 0.05 0.04 95 1016.7
20260903091500 75 59 1.0 3.0 0.01 0.05 0.04 94 1016.6
20260903091001 75 59 1.0 3.0 0.01 0.05 0.04 95 1016.7
20260903090500 75 59 1.0 3.0 0.01 0.05 0.04 94 1016.7
20260903090004 75 59 0.0 1.0 0.01 0.05 0.04 94 1016.5
20260903085500 75 59 0.0 2.0 0.03 0.05 0.04 94 1016.5
20260903085000 75 59 0.0 2.0 0.04 0.05 0.04 94 1016.5
20260903084501 75 59 1.0 2.0 0.04 0.05 0.04 94 1016.4
20260903084000 75 59 1.0 2.0 0.04 0.05 0.04 94 1016.5
20260903083459 75 59 0.0 2.0 0.03 0.04 0.03 94 1016.9
20260903083000 75 59 0.0 2.0 0.03 0.04 0.03 94 1017.1
20260903082500 75 59 1.0 2.0 0.03 0.04 0.03 95 1017.1
20260903082000 75 59 1.0 2.0 0.03 0.04 0.03 94 1017.3
20260903081500 75 59 1.0 2.0 0.03 0.04 0.03 94 1017.1
20260903081002 75 59 1.0 2.0 0.03 0.04 0.03 94 1017.1
20260903080500 75 59 1.0 3.0 0.03 0.04 0.03 94 1016.8
20260903075459 75 59 2.0 3.0 0.01 0.02 0.01 94 1017.5
20260903075001 75 60 2.0 3.0 0.00 0.01 0.00 94 1017.5
20260903074500 75 60 2.0 5.0 0.00 0.01 0.00 94 1017.5
20260903073500 74 89 1.0 3.0 0.00 0.01 0.00 94 1017.1
20260903072500 74 89 0.0 2.0 0.00 0.01 0.00 94 1016.5
20260903072001 74 89 0.0 1.0 0.00 0.01 0.00 94 1016.4
20260903071459 74 89 0.0 1.0 0.00 0.01 0.00 94 1016.2
20260903071000 74 89 0.0 2.0 0.00 0.01 0.00 94 1016.2
20260903070500 74 89 1.0 2.0 0.00 0.01 0.00 94 1016.1
20260903070004 74 89 1.0 2.0 0.00 0.01 0.00 94 1016.2
20260903064459 74 89 0.0 2.0 0.00 0.01 0.00 94 1016.0
20260903064000 74 89 0.0 1.0 0.00 0.01 0.00 94 1016.0
20260903063459 74 89 0.0 1.0 0.00 0.01 0.00 94 1015.9
20260903062959 74 89 1.0 2.0 0.00 0.01 0.00 94 1016.1
20260903062459 74 89 1.0 2.0 0.00 0.01 0.00 94 1016.0
20260903061959 74 89 1.0 2.0 0.00 0.01 0.00 94 1015.8
20260903061459 74 89 0.0 2.0 0.00 0.01 0.00 94 1015.7
20260903060459 74 89 1.0 2.0 0.00 0.01 0.00 94 1016.1
20260903055500 74 89 0.0 2.0 0.00 0.05 0.00 94 1016.2
20260903055003 74 89 0.0 2.0 0.00 0.05 0.00 94 1016.3
20260903054500 74 89 0.0 2.0 0.00 0.05 0.00 94 1016.4
20260903054000 74 89 0.0 1.0 0.00 0.05 0.00 94 1016.7
20260903053459 74 89 1.0 2.0 0.00 0.05 0.00 94 1016.7
20260903053000 74 89 1.0 2.0 0.00 0.05 0.00 94 1017.0
20260903052500 74 89 0.0 1.0 0.00 0.05 0.00 94 1017.0
20260903052000 74 89 0.0 1.0 0.00 0.05 0.00 94 1017.1
20260903051000 74 89 0.0 1.0 0.00 0.05 0.00 94 1017.1
20260903050459 74 89 0.0 1.0 0.00 0.05 0.00 94 1016.9
20260903050006 74 89 0.0 1.0 0.00 0.05 0.00 94 1017.0
20260903045008 74 89 1.0 2.0 0.00 0.99 0.00 94 1017.2
20260903044004 74 89 1.0 3.0 0.00 0.99 0.00 94 1016.9
20260903043505 74 89 0.0 2.0 0.00 0.99 0.00 94 1016.7
20260903042504 75 89 1.0 2.0 0.00 0.99 0.00 94 1017.0
20260903042005 74 89 0.0 1.0 0.00 0.99 0.00 93 1017.2
20260903041504 74 89 0.0 0.0 0.00 0.99 0.00 93 1017.4
20260903041005 74 89 0.0 1.0 0.00 0.99 0.00 93 1017.3
20260903040504 74 89 0.0 1.0 0.00 0.99 0.00 93 1017.5
20260903040010 74 89 0.0 1.0 0.00 0.99 0.00 93 1017.3
20260903035503 74 89 0.0 1.0 0.00 1.17 0.99 93 1017.3
20260903035004 75 89 0.0 1.0 0.00 1.17 0.99 93 1017.4
20260903034503 75 89 0.0 1.0 0.00 1.17 0.99 93 1017.4
20260903034005 75 89 0.0 1.0 0.00 1.17 0.99 93 1017.3
20260903033507 75 89 0.0 1.0 0.00 1.17 0.99 93 1017.1
20260903033005 75 89 0.0 2.0 0.00 1.17 0.99 93 1017.1
20260903032504 75 89 1.0 2.0 0.00 1.17 0.99 93 1017.0
20260903032005 75 89 1.0 2.0 0.00 1.17 0.99 93 1017.1
20260903031504 75 89 1.0 2.0 0.00 1.17 0.99 93 1017.3
20260903031004 75 89 1.0 2.0 0.00 1.17 0.99 93 1017.5
20260903030504 75 89 0.0 1.0 0.00 1.17 0.99 93 1017.4
20260903030005 75 89 0.0 1.0 0.00 1.38 0.99 93 1017.4
20260903025503 75 89 0.0 1.0 0.00 1.38 0.99 93 1017.3
20260903025006 75 89 0.0 1.0 0.00 1.38 0.99 93 1017.3
20260903024504 75 89 0.0 1.0 0.00 1.38 0.99 93 1017.4
20260903023504 75 89 1.0 2.0 0.00 1.38 0.99 93 1017.5
20260903023005 75 89 1.0 2.0 0.00 1.38 0.99 93 1017.5
20260903022504 75 89 1.0 2.0 0.00 1.38 0.99 93 1017.4
20260903022005 75 89 1.0 3.0 0.00 1.38 0.99 93 1017.4
20260903021504 75 89 1.0 3.0 0.00 1.38 0.99 93 1017.3
20260903021005 75 89 0.0 2.0 0.00 1.38 0.99 93 1017.0
20260903020503 75 89 0.0 2.0 0.00 1.38 0.99 93 1017.1
20260903020007 75 89 0.0 2.0 0.00 1.38 0.99 92 1017.1
20260903015504 75 89 1.0 2.0 0.00 1.38 0.99 92 1017.2
20260903013504 75 89 1.0 3.0 0.00 1.38 0.99 92 1017.4
20260903013007 75 89 1.0 3.0 0.00 1.38 0.99 92 1017.3
20260903012503 75 89 1.0 3.0 0.00 1.38 0.99 92 1017.4
20260903012006 76 89 1.0 3.0 0.00 1.38 0.99 92 1017.4
20260903011504 76 89 1.0 2.0 0.00 1.38 0.99 92 1017.4
20260903011005 76 89 1.0 2.0 0.00 1.38 0.99 92 1017.6
20260903010507 76 89 1.0 3.0 0.00 1.38 0.99 91 1017.7
20260903010006 76 89 1.0 3.0 0.00 1.38 0.99 91 1017.6
20260903005504 76 89 1.0 2.0 0.00 1.38 0.99 91 1017.4
20260903005004 76 89 1.0 2.0 0.00 1.38 0.99 91 1017.5
20260903004503 76 89 0.0 2.0 0.00 1.38 0.99 91 1017.4
20260903004003 76 89 1.0 2.0 0.00 1.38 0.99 91 1017.1
20260903003503 76 89 1.0 3.0 0.00 1.38 0.99 91 1017.3
20260903003004 76 89 1.0 3.0 0.00 1.38 0.99 91 1017.0
20260903002504 76 89 1.0 2.0 0.00 1.38 0.99 91 1017.0
20260903002003 76 89 1.0 2.0 0.00 1.38 0.99 91 1017.1
20260903001503 76 89 1.0 2.0 0.00 1.38 0.99 91 1017.1
20260903001003 76 89 0.0 2.0 0.00 1.38 0.99 91 1017.2
20260903000503 76 89 1.0 2.0 0.00 1.38 0.99 91 1017.2
20260903000006 76 89 1.0 6.0 0.00 1.38 0.99 91 1017.3
20260902235503 76 89 1.0 6.0 0.00 1.38 0.99 91 1017.1
20260902235004 76 89 1.0 4.0 0.00 1.38 0.99 91 1017.0
20260902234004 76 89 2.0 6.0 0.00 1.38 0.99 91 1017.0
20260902233004 76 82 1.0 4.0 0.00 1.38 0.99 91 1017.3
20260902232503 76 81 1.0 4.0 0.00 1.38 0.99 91 1017.3
20260902232003 76 84 1.0 3.0 0.00 1.38 0.99 91 1017.2
20260902231504 76 84 1.0 4.0 0.00 1.38 0.99 91 1017.1
20260902231003 76 84 1.0 4.0 0.00 1.38 0.99 91 1017.0
20260902230503 76 325 1.0 2.0 0.00 1.38 0.99 91 1017.0
20260902230006 76 325 1.0 2.0 0.00 1.38 0.99 91 1017.1
20260902225004 76 325 0.0 2.0 0.00 1.38 0.99 91 1017.3
20260902224503 76 325 1.0 2.0 0.00 1.38 0.99 91 1017.2
20260902224004 76 325 1.0 2.0 0.00 1.38 0.99 91 1017.1
20260902223503 76 325 0.0 2.0 0.00 1.38 0.99 91 1017.0
20260902223004 76 325 1.0 2.0 0.00 1.38 0.99 91 1017.0
20260902222516 76 325 1.0 2.0 0.00 1.38 0.99 91 1017.4
20260902222004 76 325 1.0 3.0 0.00 1.38 0.99 91 1017.4
20260902221503 76 325 0.0 3.0 0.00 1.38 0.99 91 1017.6
20260902220009 76 325 1.0 2.0 0.00 1.38 0.99 91 1017.9
20260902215502 76 325 1.0 3.0 0.00 1.38 0.99 91 1017.9
20260902215004 76 325 0.0 3.0 0.00 1.38 0.99 91 1017.6
20260902214503 76 325 1.0 2.0 0.00 1.38 0.99 91 1017.6
20260902214004 76 325 1.0 2.0 0.00 1.38 0.99 91 1017.6
20260902213503 76 325 0.0 2.0 0.00 1.38 0.99 90 1017.5
20260902213005 76 325 0.0 2.0 0.00 1.38 0.99 90 1017.8
20260902212505 76 325 1.0 2.0 0.00 1.38 0.99 90 1017.8
20260902212003 76 325 1.0 2.0 0.00 1.38 0.99 90 1017.7
20260902211503 76 325 0.0 2.0 0.00 1.38 0.99 90 1017.8
20260902211005 76 325 1.0 2.0 0.01 1.38 0.99 91 1017.6
20260902210503 76 325 1.0 3.0 0.01 1.38 0.99 91 1017.8
20260902210005 76 325 2.0 5.0 0.01 1.38 0.99 90 1017.4
20260902205503 76 325 3.0 8.0 0.01 1.38 0.99 90 1017.5
20260902205006 76 347 3.0 6.0 0.01 1.38 0.99 91 1017.5
20260902204503 75 243 2.0 5.0 0.01 1.38 0.99 91 1016.3
20260902204002 75 221 1.0 5.0 0.01 1.38 0.99 91 1016.2
20260902203504 75 229 2.0 11.0 0.01 1.38 0.99 90 1016.2
20260902202502 75 92 2.0 8.0 0.01 1.38 0.99 90 1015.8
20260902202004 75 119 2.0 8.0 0.01 1.38 0.99 90 1015.6
20260902201504 75 107 2.0 6.0 0.01 1.38 0.99 90 1015.8
20260902201005 75 172 2.0 6.0 0.00 1.37 0.98 89 1015.6
20260902200005 76 67 3.0 6.0 0.00 1.37 0.98 88 1016.1
20260902195006 76 209 2.0 7.0 0.00 1.37 0.98 87 1017.0
20260902194005 76 90 1.0 4.0 0.00 1.37 0.98 87 1017.6
20260902193503 76 90 2.0 4.0 0.00 1.37 0.98 87 1018.0
20260902193006 77 91 1.0 3.0 0.00 1.37 0.98 86 1018.6
20260902192503 78 90 1.0 3.0 0.00 1.37 0.98 85 1019.3
20260902191503 78 93 2.0 4.0 0.00 1.37 0.98 83 1019.7
20260902190503 78 128 1.0 4.0 0.00 1.37 0.98 82 1019.1
20260902190006 79 128 2.0 4.0 0.00 1.37 0.98 83 1018.7
20260902185503 79 128 2.0 4.0 0.00 1.37 0.98 83 1019.1
20260902185004 79 128 2.0 5.0 0.00 1.37 0.98 84 1019.0
20260902184004 79 132 3.0 8.0 0.00 1.37 0.98 83 1018.7
20260902183004 80 139 3.0 7.0 0.00 1.37 0.98 81 1018.8
20260902182502 81 82 2.0 6.0 0.00 1.37 0.98 83 1018.8
20260902182005 81 96 2.0 4.0 0.00 1.37 0.98 83 1018.9
20260902181503 80 99 2.0 4.0 0.00 1.37 0.98 83 1019.0
20260902181003 80 101 2.0 4.0 0.00 1.37 0.98 85 1019.0
20260902180007 79 90 2.0 5.0 0.00 1.37 0.98 85 1019.1
20260902175503 79 86 2.0 5.0 0.00 1.37 0.98 85 1019.2
20260902175002 79 48 2.0 5.0 0.00 1.37 0.98 85 1019.1